SCP
0 0 0 0 0 0 0 0 0 0 0 0 0 0 0 0 0 0 0 0 0 0 0 0 0 0 0 0 0 0 0 0 0 0 -0 -0 0 -0 0 0 0 0 0 0 0 0 0 0 0 -0 -0 -0 -0 -0
0 0 0 0 0 0 0 0 0 0 0 0 0 0 0 0 0 0 0 0 0 0 0 0 0 0 0 0 0 0 0 0 0 0 0 0 0 0 0 0 0 0 0 0 0 0 0 0 0 0 -0 -0 -0 -0
0 0 0 0 0 0 0 0 0 0 0 0 0 0 0 0 0 0 0 0 0 0 0 0 0 0 0 0 0 0 0 0 0 0 0 0 0 0 0 0 0 0 0 0 0 0 0 0 0 0 0 0 -0 -0
0 0 0 0 0 0 0 0 0 0 0 0 0 0 0 0 0 0 0 0 0 0 0 0 0 0 0 0 0 0 0 0 0 0 0 0 0 0 0 0 0 0 0 0 0 0 0 0 0 0 -0 0 0 -0
0 0 0 0 0 0 0 0 0 0 0 0 0 0 0 0 0 0 0 0 0 0 0 0 -0 0 0 0 0 0 0 0 0 0 0 0 0 0 0 0 0 0 0 0 0 0 0 0 -0 -0 -0 -0 -0 0
0 0 0 0 0 0 0 0 0 0 0 0 0 0 0 0 0 0 0 0 0 0 0 -0 0 0 0 0 0 0 0 0 0 0 0 0 0 0 0 0 0 0 0 0 0 0 0 0 0 0 0 0 0 0
0 0 0 0 0 0 0 0 0 0 0 0 0 0 0 0 0 0 0 0 0 0 0 -0 -0 0 0 0 0 0 0 0 0 0 0 0 0 0 0 0 -0 0 0 0 0 0 0 0 0 0 0 0 0 0
0 0 0 0 0 0 0 0 0 0 0 0 0 0 0 0 0 0 0 0 0 0 0 0 0 0 0 0 0 0 0 0 0 0 0 0 0 0 -0 -0 0 0 0 0 0 0 0 0 0 0 0 0 0 0
0 0 0 0 0 0 0 0 0 0 0 0 0 0 0 0 0 0 0 0 0 0 0 0 0 -0 0 0 0 0 -0 0 0 0 0 0 0 -0 0 0 0 0 0 0 0 0 0 0 0 0 0 0 0 0
0 0 0 0 0 0 0 0 0 0 0 0 0 0 0 0 0 0 0 0 0 0 0 0 0 0 0 0 -0 -0 -0 -0 0 0 0 0 0 0 0 0 0 0 0 0 0 0 0 0 0 0 0 0 0 0
0 0 0 0 0 0 0 0 0 0 0 0 0 0 0 0 0 0 0 0 0 0 0 0 0 0 0 0 0 0 0 0 0 0 0 -0 -0 0 0 0 0 0 0 -0 -0 -0 0 0 0 0 0 0 0 0
0 0 0 0 0 0 0 0 0 0 0 0 0 0 0 0 0 0 0 0 0 0 0 0 0 0 0 0 0 0 0 0 0 0 0 -0 -0 0 0 -0 -0 0 0 -0 -0 0 0 0 0 -0 0 0 0 0
0 0 0 0 0 0 0 -0 0 0 0 0 0 0 0 0 0 0 0 0 0 0 0 0 0 0 0 0 0 0 0 0 0 0 0 -0 -0 -0 -0 -0 0 0 0 0 0 0 0 0 0 0 0 0 0 0
0 0 0 0 -0 0 0 0 0 0 0 0 0 0 0 0 0 0 0 0 0 0 0 0 0 0 0 0 0 0 0 0 0 0 0 0 -0 -0 -0 -0 -0 -0 0 -0 -0 0 0 0 0 0 0 0 0 0
-0 -0 0 0 0 0 0 0 0 0 0 0 0 0 0 0 0 0 0 0 0 0 0 0 0 0 0 0 0 0 0 0 0 -0 0 0 0 0 0 0 0 0 0 -0 -0 -0 -0 0 0 0 0 0 0 0
-0 -0 0 0 0 0 0 0 0 0 0 0 0 0 0 0 0 0 0 0 0 0 0 0 0 0 0 0 0 0 0 0 0 0 0 -0 -0 -0 -0 -0 0 0 0 -0 -0 -0 0 0 0 0 0 0 0 0
0 0 0 0 0 0 0 0 0 0 0 0 0 0 0 0 0 0 0 0 0 0 0 0 0 0 0 0 0 0 0 0 -0 -0 -0 -0 -0 -0 -0 -0 -0 0 0 -0 -0 0 0 0 0 0 0 0 0 0
0 0 0 0 0 0 0 0 0 0 0 0 0 0 0 0 0 0 0 0 0 0 0 0 0 0 0 0 0 0 0 -0 -0 -0 -0 -0 -0 -0 -0 -0 -0 -0 0 0 0 0 0 0 0 0 0 0 0 0
0 0 -0 -0 0 0 0 0 0 0 0 0 0 0 0 0 0 0 0 0 0 0 0 0 0 0 0 0 0 0 0 -0 -0 -0 -0 -0 -0 -0 -0 -0 -0 -0 0 0 0 0 0 0 0 0 0 0 0 0
0 0 -0 -0 0 0 0 0 0 0 0 0 0 0 0 0 0 0 0 0 0 0 0 0 0 0 0 0 0 0 0 0 -0 -0 -0 -0 -0 -0 -0 -0 -0 -0 0 0 0 0 0 0 0 0 0 0 0 0
0 0 0 0 0 0 0 0 0 0 0 0 0 0 0 0 0 0 0 0 0 0 0 0 0 0 0 0 0 0 0 0 -0 -0 -0 -0 -0 -0 -0 0 0 0 0 0 0 0 0 0 0 0 0 0 0 0
0 0 0 0 0 0 0 0 0 0 0 0 0 0 0 0 0 0 0 0 0 0 0 0 0 0 0 0 0 0 -0 -0 0 -0 -0 -0 0 0 0 0 0 0 0 0 0 0 0 0 0 0 0 0 0 0
0 0 0 0 0 0 0 0 0 0 0 0 0 0 0 0 0 0 0 0 0 0 0 0 0 0 0 0 -0 -0 -0 -0 -0 -0 -0 -0 0 -0 0 0 0 0 0 0 0 0 0 0 0 0 0 0 0 0
0 0 0 0 0 0 0 0 0 0 0 0 0 0 0 0 0 0 0 -0 0 0 0 0 0 0 -0 -0 -0 -0 -0 -0 -0 -0 -0 0 0 0 0 0 0 0 0 0 0 0 0 0 0 0 0 0 0 0
0 0 0 0 0 0 0 0 0 0 0 0 0 0 0 0 -0 -0 0 0 0 0 0 0 0 0 -0 -0 0 -0 -0 -0 -0 -0 -0 -0 0 0 0 0 0 0 0 0 0 0 0 0 0 0 0 0 0 0
0 0 0 0 0 0 0 0 0 0 0 0 0 0 0 -0 -0 0 0 0 0 0 -0 -0 0 0 0 0 0 -0 -0 0 -0 -0 0 0 0 0 0 0 0 0 0 0 0 0 0 0 0 0 0 0 0 0
0 0 0 0 0 0 0 0 0 0 0 0 0 0 -0 -0 0 0 0 -0 -0 -0 0 0 0 0 0 0 0 0 0 0 0 0 0 0 0 0 0 0 0 0 0 0 0 0 0 0 0 0 0 0 0 0
0 0 0 0 0 0 0 0 0 0 0 0 0 0 -0 -0 0 0 -0 -0 -0 -0 -0 -0 -0 0 0 0 0 0 0 0 0 0 0 0 0 0 0 0 0 0 0 0 0 0 0 0 0 0 0 0 0 0
0 0 0 0 0 0 0 0 0 0 0 0 0 0 0 0 0 -0 -0 -0 -0 -0 0 0 0 0 0 0 0 0 0 0 0 0 0 0 0 0 0 0 0 0 0 0 -0 -0 -0 0 0 0 0 0 0 0
0 0 0 0 0 0 0 0 0 0 0 0 0 0 0 0 -0 -0 -0 -0 -0 -0 0 0 0 0 0 0 0 0 0 0 0 0 0 0 0 0 0 0 0 0 0 -0 -0 -0 -0 0 0 0 0 0 0 0
0 0 0 0 0 0 0 0 0 0 0 0 0 -0 -0 -0 -0 -0 -0 -0 -0 0 0 0 0 0 0 0 0 0 0 0 0 0 0 0 0 0 0 0 0 0 -0 -0 -0 0 0 0 0 0 0 0 0 0
0 0 0 -0 0 0 0 0 0 0 0 -0 -0 -0 -0 -0 -0 -0 -0 -0 0 0 0 0 0 0 0 0 0 0 0 0 0 0 0 0 0 0 0 0 0 -0 -0 -0 -0 0 0 0 0 0 0 0 -0 -0
0 0 0 -0 -0 -0 -0 -0 -0 -0 -0 0 0 -0 -0 -0 -0 -0 0 0 -0 -0 0 0 0 0 0 0 0 0 0 0 0 0 0 0 0 0 0 0 -0 -0 -0 0 0 0 0 0 0 0 -0 -0 -0 -0
Wind_Speed_500mb
51 50 41 45 48 48 40 36 35 25 40 29 20 16 12 9 6 3 27 22 19 8 22 21 15 12 13 8 2 3 2 2 2 4 3 1 3 3 3 6 9 12 11 8 7 7 15 18 11 12 9 5 9 36
52 53 46 52 52 44 45 34 33 35 34 33 31 24 18 12 7 4 5 21 24 20 16 16 19 20 25 26 13 6 4 4 7 4 3 3 5 4 4 5 3 7 11 6 15 12 8 41 15 20 16 11 7 30
59 57 54 48 46 45 44 40 37 37 42 42 27 35 25 19 14 8 7 9 17 20 36 36 37 38 46 49 41 16 11 11 9 14 5 3 8 2 5 8 7 12 16 8 6 10 28 53 48 57 59 48 29 15
56 52 54 51 48 48 46 41 39 43 46 47 42 25 32 29 23 19 12 7 6 5 6 8 5 9 12 15 23 36 40 28 15 9 9 5 4 7 5 6 7 8 15 12 12 26 47 48 43 36 34 37 46 38
60 51 49 51 49 45 44 42 42 42 41 43 47 47 23 39 33 26 23 19 11 11 5 14 30 36 31 28 24 20 31 30 14 7 7 6 6 4 8 5 17 24 18 13 17 37 33 35 24 9 23 31 30 47
47 52 42 42 45 45 40 41 40 35 32 33 39 52 45 33 35 27 11 16 21 28 3 6 9 13 15 12 10 15 22 23 19 9 8 10 10 7 6 8 16 52 66 72 41 39 31 47 48 46 52 54 47 35
44 46 48 49 46 42 42 41 31 32 36 35 36 37 49 43 45 31 10 6 7 21 7 8 6 7 11 9 2 9 16 13 13 8 12 9 13 16 7 15 47 41 50 65 74 73 57 65 49 32 32 27 25 30
49 47 45 43 40 43 41 38 40 42 34 31 33 38 42 48 47 42 29 11 18 7 5 4 6 2 5 4 1 4 4 9 13 10 7 8 10 14 13 36 57 47 50 59 72 70 78 76 76 74 59 50 38 36
48 46 41 42 47 44 41 42 42 37 31 29 31 32 36 44 32 40 42 31 18 9 4 7 4 3 4 2 3 1 6 5 10 5 8 9 7 17 23 45 55 49 31 43 50 46 46 58 63 64 63 60 56 51
45 49 49 47 41 36 39 40 35 28 29 34 38 27 17 16 30 34 21 16 14 15 12 7 7 5 7 2 2 4 6 5 5 9 9 7 11 39 75 92 98 77 71 57 53 50 50 53 48 46 42 41 51 54
45 47 44 41 36 37 38 38 35 36 38 49 23 8 44 53 22 13 11 10 13 7 16 17 23 7 7 5 5 9 3 4 5 7 4 6 8 13 25 24 35 39 40 36 40 57 56 54 54 53 48 40 37 35
45 42 41 35 34 37 41 32 40 51 33 43 26 38 43 12 8 8 7 5 9 11 10 9 11 10 9 14 4 8 6 3 12 6 2 7 10 22 26 37 41 36 32 28 28 27 30 43 53 61 61 52 45 37
44 41 33 30 29 30 31 43 58 56 44 50 16 11 11 7 8 10 15 6 6 14 11 10 3 11 8 10 7 5 8 10 1 4 8 9 31 40 45 49 46 40 35 32 32 25 28 31 32 40 48 48 42 35
39 35 35 26 28 13 45 69 65 65 47 10 9 9 7 8 8 8 7 8 12 31 27 20 9 10 9 6 5 8 7 5 6 5 9 6 39 57 54 51 47 45 40 37 39 32 31 34 31 29 31 34 41 44
38 36 26 42 32 46 70 71 65 44 13 8 10 7 7 8 4 18 33 32 35 29 25 13 5 8 5 5 6 1 3 11 11 9 4 45 68 72 70 64 53 46 46 44 38 37 31 29 29 26 23 21 20 20
37 30 34 29 37 44 50 55 38 20 9 8 6 6 4 5 10 16 27 32 27 22 17 9 5 5 9 7 7 14 7 10 7 6 44 64 78 84 74 63 54 46 41 37 33 30 26 20 16 15 14 11 8 2
43 31 36 36 32 34 41 44 24 7 6 8 5 20 21 6 22 20 25 25 26 20 5 6 8 20 1 3 6 8 13 6 25 58 87 84 86 88 85 67 53 43 34 27 24 20 14 12 10 11 14 20 18 16
37 36 45 42 40 38 31 12 9 8 7 12 8 20 33 16 18 22 30 30 32 19 17 10 8 2 9 9 9 10 46 49 57 54 75 89 96 86 78 64 46 37 28 18 15 11 9 8 12 21 20 19 18 21
44 43 46 49 49 29 10 12 9 9 18 9 21 21 20 22 38 36 30 31 33 33 9 14 5 7 8 20 29 51 66 60 64 82 92 92 92 86 73 52 34 24 20 9 5 8 13 13 16 18 20 17 20 25
28 34 51 53 47 13 9 7 12 7 7 9 15 17 22 22 27 31 40 44 46 14 10 6 11 40 42 45 50 60 70 81 81 86 92 69 75 70 60 43 27 17 12 2 6 10 15 15 18 19 18 19 20 26
34 41 49 56 38 14 8 12 10 8 7 12 10 26 13 21 32 40 44 36 21 13 6 44 61 72 77 81 88 87 86 86 77 74 82 73 74 61 45 37 28 21 14 9 9 13 17 18 22 22 21 24 25 26
41 43 24 56 12 19 10 15 7 9 9 5 9 16 9 9 23 37 28 22 18 48 52 59 69 74 81 86 84 80 79 77 72 69 66 57 53 49 43 35 28 23 19 14 12 14 17 20 21 22 22 27 27 29
42 37 19 6 11 15 9 18 11 12 5 6 9 5 8 13 17 22 16 25 43 64 68 69 75 79 83 80 77 76 71 64 57 52 44 39 38 35 33 32 27 21 18 16 17 19 22 25 25 25 26 27 28 31
34 29 16 14 8 8 12 7 12 9 7 4 6 8 9 13 14 12 8 22 53 60 61 62 62 60 59 59 60 56 51 40 37 35 33 31 30 29 29 27 22 18 16 20 22 23 26 27 26 27 27 27 30 32
17 17 15 7 10 10 6 5 3 4 8 10 7 8 7 10 4 7 10 25 42 52 46 44 45 43 44 42 40 35 29 29 24 24 24 24 24 26 24 22 21 21 23 23 26 27 29 29 29 29 30 30 33 37
9 12 17 15 11 12 13 12 12 14 8 8 12 9 3 4 1 13 7 14 22 22 22 26 23 23 27 30 26 21 20 21 21 22 19 22 22 22 23 25 25 24 24 23 25 28 33 33 32 33 37 38 37 39
9 13 22 20 18 16 7 7 10 7 11 13 7 5 5 4 12 9 12 13 11 19 20 20 14 16 19 15 15 14 14 18 18 16 20 22 21 21 21 23 23 27 29 28 28 28 31 35 37 39 43 45 44 43
11 23 15 22 9 12 10 7 11 15 10 14 12 9 14 16 11 9 14 15 21 23 21 11 11 16 15 13 12 12 16 18 17 20 23 22 21 19 20 23 28 31 32 32 31 31 32 36 41 44 46 50 53 48
10 32 33 7 8 8 18 15 15 21 16 23 11 9 10 14 22 21 24 24 26 22 15 7 9 12 12 13 15 18 20 22 26 29 26 28 30 29 29 32 35 36 38 41 40 37 39 42 45 48 51 53 53 49
14 33 13 10 14 15 14 22 12 24 22 23 17 14 14 26 31 29 30 30 28 22 16 11 12 16 17 18 21 27 31 28 24 21 24 31 33 37 37 38 40 40 40 42 48 52 49 49 51 51 52 52 49 48
31 14 11 8 8 9 13 23 21 15 15 17 28 24 19 19 31 38 38 40 35 27 18 16 18 20 20 21 25 25 23 18 18 17 17 26 36 40 41 41 41 42 43 46 50 53 53 53 52 52 50 50 48 45
16 10 9 6 6 10 15 11 6 7 6 9 10 17 11 12 15 16 24 27 27 28 26 26 26 25 25 26 24 18 14 16 20 22 25 37 42 45 46 47 47 48 50 52 52 53 50 51 52 50 50 48 46 45
8 8 8 10 7 4 11 11 3 6 9 9 12 12 15 11 16 15 17 19 23 28 32 31 30 29 29 27 22 18 17 25 30 40 40 40 43 47 50 52 52 52 53 55 54 52 51 50 50 49 47 45 44 43
Wind_Direction_500mb
244 229 230 239 240 241 233 240 243 253 233 232 248 267 293 306 344 309 217 225 237 241 271 262 258 258 261 261 232 212 193 107 150 264 280 323 248 200 266 188 181 188 180 205 190 224 288 156 109 155 222 303 277 200
232 232 239 237 235 232 221 231 237 243 258 238 233 248 261 288 303 332 240 247 240 238 257 266 272 268 266 257 251 224 307 131 230 266 234 303 258 198 260 278 168 252 216 199 200 223 239 192 228 219 269 302 287 216
232 236 233 231 222 224 231 234 245 254 253 253 264 222 239 258 282 280 286 298 232 267 279 274 272 266 265 262 254 241 247 244 222 220 327 324 262 152 233 231 219 224 224 239 18 290 241 253 252 261 262 266 278 269
225 222 224 224 223 220 227 236 241 252 257 247 239 240 224 245 256 271 279 280 214 250 275 289 322 312 306 278 248 234 237 245 248 234 220 249 237 188 265 285 233 217 154 216 258 277 283 285 255 278 268 267 257 251
217 224 210 214 219 226 237 244 250 257 253 248 235 235 250 216 240 253 268 271 241 213 291 292 292 288 278 266 250 239 235 247 239 213 221 224 253 253 229 282 246 192 213 206 238 247 240 269 290 295 295 296 288 244
216 212 218 224 229 235 236 243 250 253 244 242 242 232 239 227 212 232 273 257 231 218 236 308 307 287 303 297 283 247 236 239 220 216 226 225 212 218 262 255 224 238 233 236 247 268 278 277 283 287 288 287 288 266
214 220 222 227 229 231 236 244 245 241 244 249 238 230 221 232 199 198 211 168 135 160 191 283 272 302 353 33 309 246 234 211 213 238 227 225 182 205 243 253 257 258 263 262 259 263 275 274 274 287 302 294 273 267
204 205 215 220 226 230 230 229 236 247 258 249 235 224 209 224 208 202 218 183 123 142 193 264 269 252 13 23 150 205 210 213 225 233 236 202 179 224 252 250 272 276 278 272 270 267 268 273 275 279 278 274 278 278
199 204 212 218 221 222 223 239 250 260 238 224 208 204 202 216 202 194 211 216 223 228 268 210 212 266 114 345 275 284 225 240 223 233 229 189 212 228 247 266 273 277 262 284 291 282 279 269 275 276 270 264 264 263
197 203 209 220 220 223 235 253 251 236 199 187 183 181 188 173 170 172 159 171 185 204 213 238 251 241 170 62 18 324 211 251 253 227 186 234 255 262 261 265 274 285 288 286 284 275 276 273 285 287 286 279 270 272
201 206 209 214 221 228 250 241 231 192 176 176 183 115 134 127 130 160 158 167 168 208 204 218 229 216 226 150 219 218 273 238 262 253 179 247 271 246 288 302 297 297 299 304 281 269 269 273 281 283 280 288 292 289
196 202 205 209 225 242 228 228 192 189 184 173 141 130 136 125 136 161 194 207 177 211 141 163 158 170 192 200 193 199 221 186 251 148 232 262 256 293 326 335 321 315 317 317 307 297 293 282 271 271 274 275 274 276
194 197 199 207 224 237 244 205 181 185 161 131 113 133 139 142 177 198 180 225 143 134 150 157 169 159 182 185 217 207 235 233 75 236 234 234 269 323 342 334 325 315 310 313 309 320 318 307 291 279 269 262 262 258
186 195 194 206 197 182 153 161 170 157 152 93 124 126 190 177 227 193 190 135 124 136 146 150 156 170 175 170 207 245 237 46 247 255 247 263 357 339 340 337 333 330 325 322 318 322 322 316 311 302 292 277 264 262
182 187 205 178 166 142 141 150 152 149 96 111 146 160 208 204 137 144 127 123 133 138 150 149 134 155 180 236 211 13 297 245 201 233 250 356 346 343 336 335 334 331 327 324 324 320 326 323 321 315 306 294 282 268
173 180 153 146 151 148 149 153 142 96 94 132 185 128 141 136 152 160 151 145 139 138 144 133 124 149 239 195 160 227 257 227 270 6 332 344 347 340 333 331 329 327 325 326 328 329 336 341 349 1 15 17 18 12
166 176 172 157 154 157 146 141 139 116 127 156 220 211 188 183 189 184 178 179 168 166 166 128 137 213 127 250 240 208 242 259 315 327 325 324 330 332 330 319 319 321 323 330 337 342 2 16 35 58 62 62 66 78
184 178 174 170 161 159 157 138 135 150 161 197 177 210 202 212 201 208 217 205 183 195 172 201 220 149 204 190 278 276 290 296 300 306 312 313 319 321 322 310 310 312 311 328 353 9 45 71 90 87 83 79 84 84
187 184 174 170 177 151 132 165 175 193 213 198 209 206 220 237 244 245 230 227 244 251 225 174 201 208 223 230 244 263 272 282 293 303 303 307 311 316 313 295 292 296 299 319 11 56 75 80 81 86 88 90 88 87
178 174 176 182 176 146 145 160 179 221 201 229 226 214 220 234 250 244 245 245 243 222 198 211 218 238 242 250 256 266 276 285 292 296 297 304 305 310 304 282 273 268 266 223 124 112 95 92 92 92 93 90 92 90
162 163 175 177 170 161 183 172 186 205 212 191 216 224 243 252 249 246 247 244 195 207 224 238 242 249 256 261 264 266 271 277 282 285 288 292 296 298 290 269 257 246 230 194 161 136 119 106 98 96 99 99 95 92
169 175 168 164 148 175 194 189 189 178 179 222 202 201 227 224 230 239 246 206 221 238 240 249 256 259 260 258 261 265 271 276 281 285 283 283 278 278 270 248 236 225 213 189 167 141 127 117 112 110 109 102 101 98
179 177 193 150 132 161 181 183 172 182 139 222 183 193 242 220 226 224 204 229 242 247 247 251 256 257 257 259 263 268 273 277 279 279 276 270 264 253 237 227 221 215 196 169 155 139 130 122 117 114 110 108 106 104
176 173 174 174 160 126 151 162 179 175 157 181 188 251 269 219 185 193 236 245 248 253 253 253 254 256 258 261 265 271 274 272 267 264 262 246 233 226 217 213 204 190 184 163 151 143 135 128 124 122 118 115 110 103
143 164 171 161 168 112 128 152 186 131 217 212 194 277 264 209 180 219 222 253 254 250 255 260 260 260 263 266 268 273 272 260 250 249 231 228 218 208 197 187 175 171 165 157 152 146 135 129 126 122 116 113 108 102
166 169 171 171 176 151 177 163 190 203 176 198 230 248 269 101 228 249 231 249 265 274 279 273 263 250 246 251 257 260 253 242 233 227 218 210 197 201 186 172 164 158 152 151 150 144 135 130 125 125 120 110 104 102
146 186 186 181 176 156 115 125 151 134 177 202 224 146 106 242 242 248 249 249 288 296 283 277 274 244 231 245 241 233 226 216 202 202 203 188 182 182 178 174 165 155 145 143 142 139 131 129 129 124 116 109 103 99
180 172 155 162 142 171 138 159 164 194 214 201 134 177 198 202 238 237 234 270 295 309 305 291 249 231 223 213 205 199 189 184 187 179 172 166 162 164 164 160 152 142 138 136 132 130 132 128 124 120 116 110 106 102
153 156 143 111 120 203 211 185 200 210 204 183 176 219 231 234 254 259 267 280 294 295 293 267 222 207 191 186 184 179 179 178 168 165 172 159 149 143 143 144 141 139 136 132 129 126 123 121 119 118 113 110 108 108
165 158 105 140 153 207 210 207 215 219 213 212 230 250 256 256 267 273 277 283 287 286 269 234 205 194 187 182 176 168 167 169 173 176 174 166 157 148 146 146 144 140 140 140 133 129 128 125 122 118 115 113 114 110
154 142 100 144 204 206 203 210 225 228 230 232 238 253 259 285 283 282 276 274 270 265 243 213 203 193 187 181 178 172 167 166 170 166 160 163 153 144 140 137 134 135 135 133 129 127 127 125 123 121 119 116 112 108
157 162 142 156 237 157 169 178 205 233 251 233 232 226 246 249 264 263 257 249 237 229 206 202 197 188 180 175 176 177 172 170 168 165 157 152 147 142 139 137 134 134 133 131 130 128 129 127 125 122 118 116 112 108
126 138 120 120 106 175 176 164 211 290 251 251 244 221 217 228 248 248 247 218 180 193 193 192 184 182 182 180 180 179 165 154 145 142 143 147 145 141 138 136 136 136 135 132 131 132 131 128 124 122 118 114 111 106
Wind_Speed_850mb
51 50 41 45 48 48 40 36 35 25 40 29 20 16 12 9 6 3 27 22 19 8 22 21 15 12 13 8 2 3 2 2 2 4 3 1 3 3 3 6 9 12 11 8 7 7 15 18 11 12 9 5 9 36
52 53 46 52 52 44 45 34 33 35 34 33 31 24 18 12 7 4 5 21 24 20 16 16 19 20 25 26 13 6 4 4 7 4 3 3 5 4 4 5 3 7 11 6 15 12 8 41 15 20 16 11 7 30
59 57 54 48 46 45 44 40 37 37 42 42 27 35 25 19 14 8 7 9 17 20 36 36 37 38 46 49 41 16 11 11 9 14 5 3 8 2 5 8 7 12 16 8 6 10 28 53 48 57 59 48 29 15
56 52 54 51 48 48 46 41 39 43 46 47 42 25 32 29 23 19 12 7 6 5 6 8 5 9 12 15 23 36 40 28 15 9 9 5 4 7 5 6 7 8 15 12 12 26 47 48 43 36 34 37 46 38
60 51 49 51 49 45 44 42 42 42 41 43 47 47 23 39 33 26 23 19 11 11 5 14 30 36 31 28 24 20 31 30 14 7 7 6 6 4 8 5 17 24 18 13 17 37 33 35 24 9 23 31 30 47
47 52 42 42 45 45 40 41 40 35 32 33 39 52 45 33 35 27 11 16 21 28 3 6 9 13 15 12 10 15 22 23 19 9 8 10 10 7 6 8 16 52 66 72 41 39 31 47 48 46 52 54 47 35
44 46 48 49 46 42 42 41 31 32 36 35 36 37 49 43 45 31 10 6 7 21 7 8 6 7 11 9 2 9 16 13 13 8 12 9 13 16 7 15 47 41 50 65 74 73 57 65 49 32 32 27 25 30
49 47 45 43 40 43 41 38 40 42 34 31 33 38 42 48 47 42 29 11 18 7 5 4 6 2 5 4 1 4 4 9 13 10 7 8 10 14 13 36 57 47 50 59 72 70 78 76 76 74 59 50 38 36
48 46 41 42 47 44 41 42 42 37 31 29 31 32 36 44 32 40 42 31 18 9 4 7 4 3 4 2 3 1 6 5 10 5 8 9 7 17 23 45 55 49 31 43 50 46 46 58 63 64 63 60 56 51
45 49 49 47 41 36 39 40 35 28 29 34 38 27 17 16 30 34 21 16 14 15 12 7 7 5 7 2 2 4 6 5 5 9 9 7 11 39 75 92 98 77 71 57 53 50 50 53 48 46 42 41 51 54
45 47 44 41 36 37 38 38 35 36 38 49 23 8 44 53 22 13 11 10 13 7 16 17 23 7 7 5 5 9 3 4 5 7 4 6 8 13 25 24 35 39 40 36 40 57 56 54 54 53 48 40 37 35
45 42 41 35 34 37 41 32 40 51 33 43 26 38 43 12 8 8 7 5 9 11 10 9 11 10 9 14 4 8 6 3 12 6 2 7 10 22 26 37 41 36 32 28 28 27 30 43 53 61 61 52 45 37
44 41 33 30 29 30 31 43 58 56 44 50 16 11 11 7 8 10 15 6 6 14 11 10 3 11 8 10 7 5 8 10 1 4 8 9 31 40 45 49 46 40 35 32 32 25 28 31 32 40 48 48 42 35
39 35 35 26 28 13 45 69 65 65 47 10 9 9 7 8 8 8 7 8 12 31 27 20 9 10 9 6 5 8 7 5 6 5 9 6 39 57 54 51 47 45 40 37 39 32 31 34 31 29 31 34 41 44
38 36 26 42 32 46 70 71 65 44 13 8 10 7 7 8 4 18 33 32 35 29 25 13 5 8 5 5 6 1 3 11 11 9 4 45 68 72 70 64 53 46 46 44 38 37 31 29 29 26 23 21 20 20
37 30 34 29 37 44 50 55 38 20 9 8 6 6 4 5 10 16 27 32 27 22 17 9 5 5 9 7 7 14 7 10 7 6 44 64 78 84 74 63 54 46 41 37 33 30 26 20 16 15 14 11 8 2
43 31 36 36 32 34 41 44 24 7 6 8 5 20 21 6 22 20 25 25 26 20 5 6 8 20 1 3 6 8 13 6 25 58 87 84 86 88 85 67 53 43 34 27 24 20 14 12 10 11 14 20 18 16
37 36 45 42 40 38 31 12 9 8 7 12 8 20 33 16 18 22 30 30 32 19 17 10 8 2 9 9 9 10 46 49 57 54 75 89 96 86 78 64 46 37 28 18 15 11 9 8 12 21 20 19 18 21
44 43 46 49 49 29 10 12 9 9 18 9 21 21 20 22 38 36 30 31 33 33 9 14 5 7 8 20 29 51 66 60 64 82 92 92 92 86 73 52 34 24 20 9 5 8 13 13 16 18 20 17 20 25
28 34 51 53 47 13 9 7 12 7 7 9 15 17 22 22 27 31 40 44 46 14 10 6 11 40 42 45 50 60 70 81 81 86 92 69 75 70 60 43 27 17 12 2 6 10 15 15 18 19 18 19 20 26
34 41 49 56 38 14 8 12 10 8 7 12 10 26 13 21 32 40 44 36 21 13 6 44 61 72 77 81 88 87 86 86 77 74 82 73 74 61 45 37 28 21 14 9 9 13 17 18 22 22 21 24 25 26
41 43 24 56 12 19 10 15 7 9 9 5 9 16 9 9 23 37 28 22 18 48 52 59 69 74 81 86 84 80 79 77 72 69 66 57 53 49 43 35 28 23 19 14 12 14 17 20 21 22 22 27 27 29
42 37 19 6 11 15 9 18 11 12 5 6 9 5 8 13 17 22 16 25 43 64 68 69 75 79 83 80 77 76 71 64 57 52 44 39 38 35 33 32 27 21 18 16 17 19 22 25 25 25 26 27 28 31
34 29 16 14 8 8 12 7 12 9 7 4 6 8 9 13 14 12 8 22 53 60 61 62 62 60 59 59 60 56 51 40 37 35 33 31 30 29 29 27 22 18 16 20 22 23 26 27 26 27 27 27 30 32
17 17 15 7 10 10 6 5 3 4 8 10 7 8 7 10 4 7 10 25 42 52 46 44 45 43 44 42 40 35 29 29 24 24 24 24 24 26 24 22 21 21 23 23 26 27 29 29 29 29 30 30 33 37
9 12 17 15 11 12 13 12 12 14 8 8 12 9 3 4 1 13 7 14 22 22 22 26 23 23 27 30 26 21 20 21 21 22 19 22 22 22 23 25 25 24 24 23 25 28 33 33 32 33 37 38 37 39
9 13 22 20 18 16 7 7 10 7 11 13 7 5 5 4 12 9 12 13 11 19 20 20 14 16 19 15 15 14 14 18 18 16 20 22 21 21 21 23 23 27 29 28 28 28 31 35 37 39 43 45 44 43
11 23 15 22 9 12 10 7 11 15 10 14 12 9 14 16 11 9 14 15 21 23 21 11 11 16 15 13 12 12 16 18 17 20 23 22 21 19 20 23 28 31 32 32 31 31 32 36 41 44 46 50 53 48
10 32 33 7 8 8 18 15 15 21 16 23 11 9 10 14 22 21 24 24 26 22 15 7 9 12 12 13 15 18 20 22 26 29 26 28 30 29 29 32 35 36 38 41 40 37 39 42 45 48 51 53 53 49
14 33 13 10 14 15 14 22 12 24 22 23 17 14 14 26 31 29 30 30 28 22 16 11 12 16 17 18 21 27 31 28 24 21 24 31 33 37 37 38 40 40 40 42 48 52 49 49 51 51 52 52 49 48
31 14 11 8 8 9 13 23 21 15 15 17 28 24 19 19 31 38 38 40 35 27 18 16 18 20 20 21 25 25 23 18 18 17 17 26 36 40 41 41 41 42 43 46 50 53 53 53 52 52 50 50 48 45
16 10 9 6 6 10 15 11 6 7 6 9 10 17 11 12 15 16 24 27 27 28 26 26 26 25 25 26 24 18 14 16 20 22 25 37 42 45 46 47 47 48 50 52 52 53 50 51 52 50 50 48 46 45
8 8 8 10 7 4 11 11 3 6 9 9 12 12 15 11 16 15 17 19 23 28 32 31 30 29 29 27 22 18 17 25 30 40 40 40 43 47 50 52 52 52 53 55 54 52 51 50 50 49 47 45 44 43
Wind_Direction_850mb
244 229 230 239 240 241 233 240 243 253 233 232 248 267 293 306 344 309 217 225 237 241 271 262 258 258 261 261 232 212 193 107 150 264 280 323 248 200 266 188 181 188 180 205 190 224 288 156 109 155 222 303 277 200
232 232 239 237 235 232 221 231 237 243 258 238 233 248 261 288 303 332 240 247 240 238 257 266 272 268 266 257 251 224 307 131 230 266 234 303 258 198 260 278 168 252 216 199 200 223 239 192 228 219 269 302 287 216
232 236 233 231 222 224 231 234 245 254 253 253 264 222 239 258 282 280 286 298 232 267 279 274 272 266 265 262 254 241 247 244 222 220 327 324 262 152 233 231 219 224 224 239 18 290 241 253 252 261 262 266 278 269
225 222 224 224 223 220 227 236 241 252 257 247 239 240 224 245 256 271 279 280 214 250 275 289 322 312 306 278 248 234 237 245 248 234 220 249 237 188 265 285 233 217 154 216 258 277 283 285 255 278 268 267 257 251
217 224 210 214 219 226 237 244 250 257 253 248 235 235 250 216 240 253 268 271 241 213 291 292 292 288 278 266 250 239 235 247 239 213 221 224 253 253 229 282 246 192 213 206 238 247 240 269 290 295 295 296 288 244
216 212 218 224 229 235 236 243 250 253 244 242 242 232 239 227 212 232 273 257 231 218 236 308 307 287 303 297 283 247 236 239 220 216 226 225 212 218 262 255 224 238 233 236 247 268 278 277 283 287 288 287 288 266
214 220 222 227 229 231 236 244 245 241 244 249 238 230 221 232 199 198 211 168 135 160 191 283 272 302 353 33 309 246 234 211 213 238 227 225 182 205 243 253 257 258 263 262 259 263 275 274 274 287 302 294 273 267
204 205 215 220 226 230 230 229 236 247 258 249 235 224 209 224 208 202 218 183 123 142 193 264 269 252 13 23 150 205 210 213 225 233 236 202 179 224 252 250 272 276 278 272 270 267 268 273 275 279 278 274 278 278
199 204 212 218 221 222 223 239 250 260 238 224 208 204 202 216 202 194 211 216 223 228 268 210 212 266 114 345 275 284 225 240 223 233 229 189 212 228 247 266 273 277 262 284 291 282 279 269 275 276 270 264 264 263
197 203 209 220 220 223 235 253 251 236 199 187 183 181 188 173 170 172 159 171 185 204 213 238 251 241 170 62 18 324 211 251 253 227 186 234 255 262 261 265 274 285 288 286 284 275 276 273 285 287 286 279 270 272
201 206 209 214 221 228 250 241 231 192 176 176 183 115 134 127 130 160 158 167 168 208 204 218 229 216 226 150 219 218 273 238 262 253 179 247 271 246 288 302 297 297 299 304 281 269 269 273 281 283 280 288 292 289
196 202 205 209 225 242 228 228 192 189 184 173 141 130 136 125 136 161 194 207 177 211 141 163 158 170 192 200 193 199 221 186 251 148 232 262 256 293 326 335 321 315 317 317 307 297 293 282 271 271 274 275 274 276
194 197 199 207 224 237 244 205 181 185 161 131 113 133 139 142 177 198 180 225 143 134 150 157 169 159 182 185 217 207 235 233 75 236 234 234 269 323 342 334 325 315 310 313 309 320 318 307 291 279 269 262 262 258
186 195 194 206 197 182 153 161 170 157 152 93 124 126 190 177 227 193 190 135 124 136 146 150 156 170 175 170 207 245 237 46 247 255 247 263 357 339 340 337 333 330 325 322 318 322 322 316 311 302 292 277 264 262
182 187 205 178 166 142 141 150 152 149 96 111 146 160 208 204 137 144 127 123 133 138 150 149 134 155 180 236 211 13 297 245 201 233 250 356 346 343 336 335 334 331 327 324 324 320 326 323 321 315 306 294 282 268
173 180 153 146 151 148 149 153 142 96 94 132 185 128 141 136 152 160 151 145 139 138 144 133 124 149 239 195 160 227 257 227 270 6 332 344 347 340 333 331 329 327 325 326 328 329 336 341 349 1 15 17 18 12
166 176 172 157 154 157 146 141 139 116 127 156 220 211 188 183 189 184 178 179 168 166 166 128 137 213 127 250 240 208 242 259 315 327 325 324 330 332 330 319 319 321 323 330 337 342 2 16 35 58 62 62 66 78
184 178 174 170 161 159 157 138 135 150 161 197 177 210 202 212 201 208 217 205 183 195 172 201 220 149 204 190 278 276 290 296 300 306 312 313 319 321 322 310 310 312 311 328 353 9 45 71 90 87 83 79 84 84
187 184 174 170 177 151 132 165 175 193 213 198 209 206 220 237 244 245 230 227 244 251 225 174 201 208 223 230 244 263 272 282 293 303 303 307 311 316 313 295 292 296 299 319 11 56 75 80 81 86 88 90 88 87
178 174 176 182 176 146 145 160 179 221 201 229 226 214 220 234 250 244 245 245 243 222 198 211 218 238 242 250 256 266 276 285 292 296 297 304 305 310 304 282 273 268 266 223 124 112 95 92 92 92 93 90 92 90
162 163 175 177 170 161 183 172 186 205 212 191 216 224 243 252 249 246 247 244 195 207 224 238 242 249 256 261 264 266 271 277 282 285 288 292 296 298 290 269 257 246 230 194 161 136 119 106 98 96 99 99 95 92
169 175 168 164 148 175 194 189 189 178 179 222 202 201 227 224 230 239 246 206 221 238 240 249 256 259 260 258 261 265 271 276 281 285 283 283 278 278 270 248 236 225 213 189 167 141 127 117 112 110 109 102 101 98
179 177 193 150 132 161 181 183 172 182 139 222 183 193 242 220 226 224 204 229 242 247 247 251 256 257 257 259 263 268 273 277 279 279 276 270 264 253 237 227 221 215 196 169 155 139 130 122 117 114 110 108 106 104
176 173 174 174 160 126 151 162 179 175 157 181 188 251 269 219 185 193 236 245 248 253 253 253 254 256 258 261 265 271 274 272 267 264 262 246 233 226 217 213 204 190 184 163 151 143 135 128 124 122 118 115 110 103
143 164 171 161 168 112 128 152 186 131 217 212 194 277 264 209 180 219 222 253 254 250 255 260 260 260 263 266 268 273 272 260 250 249 231 228 218 208 197 187 175 171 165 157 152 146 135 129 126 122 116 113 108 102
166 169 171 171 176 151 177 163 190 203 176 198 230 248 269 101 228 249 231 249 265 274 279 273 263 250 246 251 257 260 253 242 233 227 218 210 197 201 186 172 164 158 152 151 150 144 135 130 125 125 120 110 104 102
146 186 186 181 176 156 115 125 151 134 177 202 224 146 106 242 242 248 249 249 288 296 283 277 274 244 231 245 241 233 226 216 202 202 203 188 182 182 178 174 165 155 145 143 142 139 131 129 129 124 116 109 103 99
180 172 155 162 142 171 138 159 164 194 214 201 134 177 198 202 238 237 234 270 295 309 305 291 249 231 223 213 205 199 189 184 187 179 172 166 162 164 164 160 152 142 138 136 132 130 132 128 124 120 116 110 106 102
153 156 143 111 120 203 211 185 200 210 204 183 176 219 231 234 254 259 267 280 294 295 293 267 222 207 191 186 184 179 179 178 168 165 172 159 149 143 143 144 141 139 136 132 129 126 123 121 119 118 113 110 108 108
165 158 105 140 153 207 210 207 215 219 213 212 230 250 256 256 267 273 277 283 287 286 269 234 205 194 187 182 176 168 167 169 173 176 174 166 157 148 146 146 144 140 140 140 133 129 128 125 122 118 115 113 114 110
154 142 100 144 204 206 203 210 225 228 230 232 238 253 259 285 283 282 276 274 270 265 243 213 203 193 187 181 178 172 167 166 170 166 160 163 153 144 140 137 134 135 135 133 129 127 127 125 123 121 119 116 112 108
157 162 142 156 237 157 169 178 205 233 251 233 232 226 246 249 264 263 257 249 237 229 206 202 197 188 180 175 176 177 172 170 168 165 157 152 147 142 139 137 134 134 133 131 130 128 129 127 125 122 118 116 112 108
126 138 120 120 106 175 176 164 211 290 251 251 244 221 217 228 248 248 247 218 180 193 193 192 184 182 182 180 180 179 165 154 145 142 143 147 145 141 138 136 136 136 135 132 131 132 131 128 124 122 118 114 111 106